When you browse on this site, cookies collect data to enhance your experience and personalize the content and advertising you see.
Visit our Privacy Policy to learn more. By continuing to use the site, you agree to this use of cookies and data.
  • In Romania
  • List of Countries
  • For 7 days
  • Water Temperature
  • Weather Map
  • Weather Widgets
  • user-avatar
    Login

    Hourly Weather Tamale

    Today, 7 December, Saturday

    Time Temperature Precipitation Wind Pressure Humidity
    00:00 +29°C° 0 mm 1 mps 741 mmHg 38%
    01:00 +28°C° 0 mm 1 mps 741 mmHg 38%
    02:00 +28°C° 0 mm 1 mps 741 mmHg 38%
    03:00 +28°C° 0 mm 1 mps 741 mmHg 38%
    04:00 +27°C° 0 mm 1 mps 741 mmHg 38%
    05:00 +27°C° 0 mm 1 mps 741 mmHg 38%
    06:00 +26°C° 0 mm 1 mps 741 mmHg 37%
    07:00 +29°C° 0 mm 1 mps 742 mmHg 33%
    08:00 +30°C° 0 mm 0 mps 742 mmHg 28%
    09:00 +33°C° 0 mm 0 mps 743 mmHg 24%
    10:00 +36°C° 0 mm 1 mps 742 mmHg 22%
    11:00 +39°C° 0 mm 1 mps 741 mmHg 20%
    12:00 +40°C° 0 mm 1 mps 740 mmHg 18%
    13:00 +40°C° 0 mm 1 mps 740 mmHg 18%
    14:00 +40°C° 0 mm 1 mps 739 mmHg 17%
    15:00 +41°C° 0 mm 1 mps 739 mmHg 17%
    16:00 +39°C° 0 mm 1 mps 739 mmHg 19%
    17:00 +36°C° 0 mm 1 mps 739 mmHg 22%
    18:00 +32°C° 0 mm 0 mps 739 mmHg 24%
    19:00 +31°C° 0 mm 0 mps 740 mmHg 25%
    20:00 +32°C° 0 mm 1 mps 740 mmHg 27%
    21:00 +31°C° 0 mm 1 mps 741 mmHg 28%
    22:00 +30°C° 0 mm 1 mps 741 mmHg 29%
    23:00 +28°C° 0 mm 0 mps 741 mmHg 30%

    Tomorrow, 8 December, Sunday

    Time Temperature Precipitation Wind Pressure Humidity
    00:00 +27°C° 0 mm 0 mps 741 mmHg 31%
    01:00 +26°C° 0 mm 0 mps 741 mmHg 32%
    02:00 +26°C° 0 mm 0 mps 741 mmHg 33%
    03:00 +27°C° 0 mm 1 mps 741 mmHg 33%
    04:00 +27°C° 0 mm 1 mps 741 mmHg 37%
    05:00 +26°C° 0 mm 1 mps 741 mmHg 41%
    06:00 +26°C° 0 mm 1 mps 742 mmHg 45%
    07:00 +29°C° 0 mm 1 mps 742 mmHg 43%
    08:00 +29°C° 0 mm 0 mps 742 mmHg 40%
    09:00 +32°C° 0 mm 0 mps 743 mmHg 38%
    10:00 +35°C° 0 mm 1 mps 742 mmHg 31%
    11:00 +37°C° 0 mm 1 mps 742 mmHg 25%
    12:00 +40°C° 0 mm 1 mps 741 mmHg 18%
    13:00 +40°C° 0 mm 1 mps 741 mmHg 17%
    14:00 +40°C° 0 mm 1 mps 740 mmHg 16%
    15:00 +40°C° 0 mm 1 mps 739 mmHg 15%
    16:00 +37°C° 0 mm 1 mps 739 mmHg 16%
    17:00 +35°C° 0 mm 1 mps 739 mmHg 18%
    18:00 +31°C° 0 mm 0 mps 739 mmHg 20%
    19:00 +30°C° 0 mm 0 mps 740 mmHg 20%
    20:00 +29°C° 0 mm 0 mps 740 mmHg 20%
    21:00 +30°C° 0 mm 1 mps 741 mmHg 20%
    22:00 +27°C° 0 mm 0 mps 741 mmHg 21%
    23:00 +27°C° 0 mm 0 mps 741 mmHg 22%

    Day after tomorrow, 9 December, Monday

    Time Temperature Precipitation Wind Pressure Humidity
    00:00 +26°C° 0 mm 0 mps 741 mmHg 23%
    01:00 +26°C° 0 mm 0 mps 741 mmHg 27%
    02:00 +27°C° 0 mm 1 mps 741 mmHg 31%
    03:00 +27°C° 0 mm 1 mps 740 mmHg 35%
    04:00 +26°C° 0 mm 1 mps 741 mmHg 43%
    05:00 +24°C° 0 mm 0 mps 741 mmHg 50%
    06:00 +23°C° 0 mm 0 mps 742 mmHg 57%
    07:00 +28°C° 0 mm 1 mps 742 mmHg 57%
    08:00 +30°C° 0 mm 1 mps 743 mmHg 56%
    09:00 +32°C° 0 mm 1 mps 743 mmHg 56%
    10:00 +35°C° 0 mm 1 mps 743 mmHg 45%
    11:00 +36°C° 0 mm 0 mps 742 mmHg 34%
    12:00 +39°C° 0 mm 0 mps 742 mmHg 24%
    13:00 +39°C° 0 mm 0 mps 741 mmHg 22%
    14:00 +38°C° 0 mm 0 mps 740 mmHg 21%
    15:00 +38°C° 0 mm 0 mps 739 mmHg 19%
    16:00 +36°C° 0 mm 0 mps 739 mmHg 21%
    17:00 +34°C° 0 mm 0 mps 739 mmHg 23%
    18:00 +34°C° 0 mm 1 mps 739 mmHg 24%
    19:00 +31°C° 0 mm 0 mps 740 mmHg 25%
    20:00 +30°C° 0 mm 0 mps 740 mmHg 25%
    21:00 +29°C° 0 mm 0 mps 741 mmHg 26%
    22:00 +28°C° 0 mm 0 mps 741 mmHg 30%
    23:00 +27°C° 0 mm 0 mps 741 mmHg 34%

    10 December, Tuesday

    Time Temperature Precipitation Wind Pressure Humidity
    00:00 +27°C° 0 mm 0 mps 741 mmHg 38%
    01:00 +26°C° 0 mm 0 mps 741 mmHg 44%
    02:00 +28°C° 0 mm 1 mps 741 mmHg 50%
    03:00 +27°C° 0 mm 1 mps 740 mmHg 55%
    04:00 +27°C° 0 mm 1 mps 741 mmHg 63%
    05:00 +26°C° 0 mm 1 mps 741 mmHg 71%
    06:00 +26°C° 0 mm 1 mps 741 mmHg 79%
    07:00 +28°C° 0 mm 1 mps 742 mmHg 71%
    08:00 +30°C° 0 mm 1 mps 742 mmHg 63%
    09:00 +32°C° 0 mm 2 mps 743 mmHg 55%
    10:00 +35°C° 0 mm 1 mps 742 mmHg 44%
    11:00 +39°C° 0 mm 1 mps 742 mmHg 33%
    12:00 +39°C° 0 mm 0 mps 742 mmHg 22%
    13:00 +39°C° 0 mm 0 mps 741 mmHg 21%
    14:00 +41°C° 0 mm 1 mps 740 mmHg 19%
    15:00 +41°C° 0 mm 1 mps 739 mmHg 18%
    16:00 +39°C° 0 mm 1 mps 739 mmHg 19%
    17:00 +36°C° 0 mm 1 mps 739 mmHg 20%
    18:00 +34°C° 0 mm 1 mps 739 mmHg 21%
    19:00 +33°C° 0 mm 1 mps 740 mmHg 21%
    20:00 +31°C° 0 mm 1 mps 740 mmHg 21%
    21:00 +30°C° 0 mm 1 mps 741 mmHg 21%
    22:00 +30°C° 0 mm 1 mps 741 mmHg 21%
    23:00 +27°C° 0 mm 0 mps 741 mmHg 22%

    11 December, Wednesday

    Time Temperature Precipitation Wind Pressure Humidity
    00:00 +26°C° 0 mm 0 mps 741 mmHg 22%
    01:00 +25°C° 0 mm 0 mps 741 mmHg 26%
    02:00 +25°C° 0 mm 0 mps 740 mmHg 29%
    03:00 +24°C° 0 mm 0 mps 740 mmHg 32%
    04:00 +26°C° 0 mm 1 mps 741 mmHg 41%
    05:00 +25°C° 0 mm 1 mps 741 mmHg 50%
    06:00 +25°C° 0 mm 1 mps 741 mmHg 60%
    07:00 +27°C° 0 mm 1 mps 742 mmHg 59%
    08:00 +29°C° 0 mm 1 mps 742 mmHg 58%
    09:00 +31°C° 0 mm 2 mps 743 mmHg 57%
    10:00 +34°C° 0 mm 1 mps 742 mmHg 45%
    11:00 +37°C° 0 mm 1 mps 742 mmHg 34%
    12:00 +38°C° 0 mm 0 mps 741 mmHg 22%
    13:00 +41°C° 0 mm 1 mps 741 mmHg 21%
    14:00 +41°C° 0 mm 1 mps 740 mmHg 19%
    15:00 +41°C° 0 mm 1 mps 739 mmHg 17%
    16:00 +37°C° 0 mm 1 mps 739 mmHg 18%
    17:00 +35°C° 0 mm 1 mps 739 mmHg 20%
    18:00 +33°C° 0 mm 1 mps 739 mmHg 21%
    19:00 +32°C° 0 mm 1 mps 739 mmHg 22%
    20:00 +31°C° 0 mm 1 mps 740 mmHg 23%
    21:00 +31°C° 0 mm 1 mps 740 mmHg 23%
    22:00 +28°C° 0 mm 0 mps 741 mmHg 25%
    23:00 +27°C° 0 mm 0 mps 741 mmHg 27%

    12 December, Thursday

    Time Temperature Precipitation Wind Pressure Humidity
    00:00 +26°C° 0 mm 0 mps 741 mmHg 28%
    01:00 +25°C° 0 mm 0 mps 740 mmHg 32%
    02:00 +25°C° 0 mm 0 mps 740 mmHg 37%
    03:00 +24°C° 0 mm 0 mps 740 mmHg 41%
    04:00 +24°C° 0 mm 0 mps 740 mmHg 46%
    05:00 +23°C° 0 mm 0 mps 741 mmHg 52%
    06:00 +23°C° 0 mm 0 mps 741 mmHg 57%
    07:00 +25°C° 0 mm 0 mps 742 mmHg 56%
    08:00 +30°C° 0 mm 1 mps 742 mmHg 54%
    09:00 +32°C° 0 mm 1 mps 743 mmHg 53%
    10:00 +35°C° 0 mm 1 mps 742 mmHg 43%
    11:00 +37°C° 0 mm 1 mps 742 mmHg 33%
    12:00 +38°C° 0 mm 0 mps 741 mmHg 23%
    13:00 +41°C° 0 mm 1 mps 740 mmHg 22%
    14:00 +41°C° 0 mm 1 mps 740 mmHg 21%
    15:00 +40°C° 0 mm 1 mps 739 mmHg 19%
    16:00 +37°C° 0 mm 1 mps 739 mmHg 21%
    17:00 +35°C° 0 mm 1 mps 739 mmHg 23%
    18:00 +34°C° 0 mm 1 mps 739 mmHg 25%
    19:00 +33°C° 0 mm 1 mps 740 mmHg 25%
    20:00 +32°C° 0 mm 1 mps 741 mmHg 26%
    21:00 +31°C° 0 mm 1 mps 741 mmHg 26%
    22:00 +30°C° 0 mm 1 mps 741 mmHg 28%
    23:00 +27°C° 0 mm 0 mps 741 mmHg 30%
    Show more